Back to catalog

CZ-4 DEB

AliveSSO
NORAD 23259·DEBRIS·🇨🇳 China

Launched Sep 3, 1990 from Taiyuan Satellite Launch Center

Loading…

Next Passes (next 24 hours)

TLE

FreshSource: Space-Track

Epoch: Sep 12, 2026, 05:42 UTC

1 23259U 90081CQ  26255.23785207  .00001015  00000-0  37259-3 0  9999
2 23259  98.5604 253.1479 0018868  92.4844 267.8501 14.34782147822707

Track CZ-4 DEB in real time with AllMySat

Download on the App Store